When you browse on this site, cookies collect data to enhance your experience and personalize the content and advertising you see.
Visit our Privacy Policy to learn more. By continuing to use the site, you agree to this use of cookies and data.

Tiempo cada hora Georgetown

Hoy, 13 Agosto, Jueves

Tiempo Temperatura Precipitaciones Viento Presión Humedad
00:00 +29°C° 0.7 mm 4 mps 733 mmHg 71%
01:00 +28°C° 0.7 mm 5 mps 733 mmHg 75%
02:00 +28°C° 1 mm 4 mps 733 mmHg 77%
03:00 +28°C° 1 mm 3 mps 733 mmHg 80%
04:00 +27°C° 1 mm 3 mps 733 mmHg 83%
05:00 +27°C° 0.3 mm 2 mps 733 mmHg 81%
06:00 +27°C° 0.3 mm 2 mps 733 mmHg 79%
07:00 +28°C° 0.3 mm 1 mps 734 mmHg 77%
08:00 +27°C° 0.8 mm 1 mps 734 mmHg 79%
09:00 +26°C° 0.8 mm 2 mps 734 mmHg 82%
10:00 +26°C° 0.8 mm 2 mps 734 mmHg 84%
11:00 +27°C° 0.3 mm 2 mps 733 mmHg 81%
12:00 +27°C° 0.3 mm 3 mps 733 mmHg 79%
13:00 +28°C° 0.3 mm 3 mps 733 mmHg 76%
14:00 +28°C° 0 mm 3 mps 732 mmHg 74%
15:00 +29°C° 0 mm 4 mps 732 mmHg 71%
16:00 +30°C° 0 mm 4 mps 731 mmHg 69%
17:00 +30°C° 0 mm 4 mps 731 mmHg 70%
18:00 +30°C° 0 mm 4 mps 731 mmHg 72%
19:00 +29°C° 0 mm 4 mps 731 mmHg 73%
20:00 +29°C° 0 mm 5 mps 732 mmHg 76%
21:00 +29°C° 0 mm 5 mps 732 mmHg 78%
22:00 +29°C° 0 mm 5 mps 732 mmHg 81%
23:00 +29°C° 0 mm 5 mps 732 mmHg 81%

Mañana, 14 Agosto, Viernes

Tiempo Temperatura Precipitaciones Viento Presión Humedad
00:00 +29°C° 0 mm 5 mps 732 mmHg 80%
01:00 +29°C° 0 mm 5 mps 732 mmHg 80%
02:00 +28°C° 0 mm 6 mps 732 mmHg 80%
03:00 +28°C° 0 mm 6 mps 731 mmHg 80%
04:00 +28°C° 0 mm 6 mps 731 mmHg 79%
05:00 +28°C° 0 mm 6 mps 731 mmHg 80%
06:00 +28°C° 0 mm 6 mps 732 mmHg 81%
07:00 +28°C° 0 mm 5 mps 732 mmHg 82%
08:00 +28°C° 0 mm 5 mps 732 mmHg 80%
09:00 +29°C° 0 mm 5 mps 732 mmHg 78%
10:00 +29°C° 0 mm 5 mps 732 mmHg 75%
11:00 +29°C° 0 mm 4 mps 732 mmHg 75%
12:00 +29°C° 0 mm 4 mps 732 mmHg 75%
13:00 +29°C° 0 mm 3 mps 731 mmHg 75%
14:00 +29°C° 0 mm 3 mps 731 mmHg 72%
15:00 +30°C° 0 mm 2 mps 730 mmHg 69%
16:00 +30°C° 0 mm 1 mps 729 mmHg 67%
17:00 +30°C° 0 mm 1 mps 730 mmHg 68%
18:00 +30°C° 0 mm 1 mps 730 mmHg 70%
19:00 +30°C° 0 mm 1 mps 731 mmHg 72%
20:00 +30°C° 0 mm 1 mps 731 mmHg 71%
21:00 +30°C° 0 mm 2 mps 732 mmHg 71%
22:00 +30°C° 0 mm 2 mps 732 mmHg 70%
23:00 +29°C° 0.3 mm 4 mps 732 mmHg 73%

Pasado mañana, 15 Agosto, Sábado

Tiempo Temperatura Precipitaciones Viento Presión Humedad
00:00 +29°C° 0.3 mm 6 mps 732 mmHg 77%
01:00 +29°C° 0.3 mm 7 mps 732 mmHg 80%
02:00 +28°C° 0 mm 7 mps 732 mmHg 82%
03:00 +28°C° 0 mm 7 mps 731 mmHg 83%
04:00 +27°C° 0 mm 7 mps 731 mmHg 85%
05:00 +28°C° 0 mm 8 mps 732 mmHg 84%
06:00 +28°C° 0 mm 8 mps 732 mmHg 83%
07:00 +28°C° 0 mm 8 mps 732 mmHg 82%
08:00 +28°C° 0 mm 8 mps 733 mmHg 80%
09:00 +29°C° 0 mm 9 mps 733 mmHg 77%
10:00 +29°C° 0 mm 9 mps 733 mmHg 75%
11:00 +29°C° 0 mm 8 mps 733 mmHg 73%
12:00 +29°C° 0 mm 7 mps 732 mmHg 71%
13:00 +30°C° 0 mm 6 mps 732 mmHg 70%
14:00 +30°C° 0 mm 6 mps 731 mmHg 70%
15:00 +30°C° 0 mm 5 mps 731 mmHg 70%
16:00 +30°C° 0 mm 4 mps 730 mmHg 69%
17:00 +30°C° 0 mm 4 mps 730 mmHg 70%
18:00 +30°C° 0 mm 4 mps 731 mmHg 71%
19:00 +30°C° 0 mm 4 mps 731 mmHg 72%
20:00 +30°C° 0 mm 4 mps 731 mmHg 73%
21:00 +30°C° 0 mm 4 mps 731 mmHg 74%
22:00 +30°C° 0 mm 4 mps 732 mmHg 75%
23:00 +29°C° 0 mm 5 mps 732 mmHg 76%

16 Agosto, Domingo

Tiempo Temperatura Precipitaciones Viento Presión Humedad
00:00 +29°C° 0 mm 5 mps 731 mmHg 76%
01:00 +29°C° 0 mm 6 mps 731 mmHg 77%
02:00 +29°C° 0 mm 6 mps 731 mmHg 78%
03:00 +29°C° 0 mm 7 mps 730 mmHg 79%
04:00 +28°C° 0 mm 7 mps 730 mmHg 79%
05:00 +28°C° 0 mm 8 mps 731 mmHg 81%
06:00 +28°C° 0 mm 8 mps 731 mmHg 82%
07:00 +28°C° 0 mm 9 mps 731 mmHg 83%
08:00 +29°C° 0 mm 8 mps 732 mmHg 80%
09:00 +29°C° 0 mm 8 mps 732 mmHg 78%
10:00 +30°C° 0 mm 7 mps 733 mmHg 75%
11:00 +30°C° 0 mm 6 mps 732 mmHg 73%
12:00 +32°C° 0 mm 6 mps 732 mmHg 71%
13:00 +32°C° 0 mm 5 mps 732 mmHg 70%
14:00 +32°C° 0 mm 5 mps 731 mmHg 69%
15:00 +32°C° 0 mm 5 mps 730 mmHg 69%
16:00 +32°C° 0 mm 4 mps 730 mmHg 69%
17:00 +32°C° 0.1 mm 4 mps 730 mmHg 71%
18:00 +32°C° 0.1 mm 5 mps 730 mmHg 73%
19:00 +30°C° 0.1 mm 5 mps 730 mmHg 75%
20:00 +30°C° 0 mm 6 mps 731 mmHg 75%
21:00 +30°C° 0 mm 7 mps 731 mmHg 75%
22:00 +31°C° 0 mm 8 mps 732 mmHg 76%
23:00 +31°C° 0 mm 8 mps 731 mmHg 78%

17 Agosto, Lunes

Tiempo Temperatura Precipitaciones Viento Presión Humedad
00:00 +29°C° 0 mm 8 mps 731 mmHg 80%
01:00 +29°C° 0 mm 8 mps 731 mmHg 82%
02:00 +29°C° 0 mm 8 mps 731 mmHg 81%
03:00 +28°C° 0 mm 8 mps 730 mmHg 81%
04:00 +28°C° 0 mm 8 mps 730 mmHg 81%
05:00 +28°C° 0 mm 8 mps 731 mmHg 81%
06:00 +28°C° 0 mm 8 mps 731 mmHg 80%
07:00 +28°C° 0 mm 8 mps 731 mmHg 80%
08:00 +29°C° 0 mm 7 mps 732 mmHg 78%
09:00 +29°C° 0 mm 7 mps 732 mmHg 77%
10:00 +29°C° 0 mm 6 mps 732 mmHg 75%
11:00 +30°C° 0 mm 5 mps 732 mmHg 74%
12:00 +30°C° 0 mm 5 mps 731 mmHg 72%
13:00 +30°C° 0 mm 4 mps 731 mmHg 71%
14:00 +30°C° 0.4 mm 4 mps 730 mmHg 71%
15:00 +30°C° 0.4 mm 4 mps 730 mmHg 70%
16:00 +30°C° 0.4 mm 4 mps 730 mmHg 70%
17:00 +30°C° 0.3 mm 5 mps 730 mmHg 73%
18:00 +30°C° 0.3 mm 6 mps 729 mmHg 76%
19:00 +29°C° 0.3 mm 7 mps 729 mmHg 78%
20:00 +29°C° 0.2 mm 7 mps 730 mmHg 79%
21:00 +29°C° 0.2 mm 8 mps 731 mmHg 79%
22:00 +29°C° 0.2 mm 9 mps 732 mmHg 80%
23:00 +28°C° 0.1 mm 8 mps 732 mmHg 79%

18 Agosto, Martes

Tiempo Temperatura Precipitaciones Viento Presión Humedad
00:00 +28°C° 0.1 mm 8 mps 731 mmHg 79%
01:00 +28°C° 0.1 mm 7 mps 731 mmHg 78%
02:00 +28°C° 0 mm 7 mps 731 mmHg 78%
03:00 +28°C° 0 mm 7 mps 731 mmHg 77%
04:00 +28°C° 0 mm 7 mps 731 mmHg 77%
05:00 +28°C° 0 mm 7 mps 731 mmHg 76%
06:00 +28°C° 0 mm 7 mps 731 mmHg 76%
07:00 +28°C° 0 mm 6 mps 732 mmHg 75%
08:00 +28°C° 0 mm 5 mps 732 mmHg 73%
09:00 +29°C° 0 mm 5 mps 733 mmHg 70%
10:00 +29°C° 0 mm 4 mps 733 mmHg 67%
11:00 +29°C° 0 mm 4 mps 732 mmHg 66%
12:00 +30°C° 0 mm 4 mps 732 mmHg 66%
13:00 +30°C° 0 mm 4 mps 731 mmHg 65%
14:00 +30°C° 0 mm 3 mps 731 mmHg 64%
15:00 +30°C° 0 mm 3 mps 730 mmHg 63%
16:00 +30°C° 0 mm 2 mps 730 mmHg 62%
17:00 +31°C° 0 mm 2 mps 730 mmHg 62%
18:00 +31°C° 0 mm 3 mps 730 mmHg 62%
19:00 +31°C° 0 mm 3 mps 730 mmHg 62%
20:00 +31°C° 0 mm 2 mps 731 mmHg 62%
21:00 +30°C° 0 mm 2 mps 731 mmHg 63%
22:00 +30°C° 0 mm 1 mps 732 mmHg 63%
23:00 +30°C° 0 mm 1 mps 731 mmHg 64%
Mostrar más